Location: Bilsen
(53.7722°N, 9.8765°E)
Time: 18:39:17
(UTC+00:00)

Cosmos 2369 Rocket - Pass Details

Date: 18 February 2020
Orbit: 827 x 854 km, 71.0° (Epoch: 28 March)

Event Time Altitude Azimuth Distance (km) Brightness Sun altitude
Exits shadow 02:52:59 25° 352° (N) 1,672 3.8 -32.7°
Maximum altitude 02:55:45 40° 44° (NE) 1,247 3.4 -32.3°
Drops below altitude 10° 03:01:06 10° 114° (ESE) 2,486 5.1 -31.6°
Sets 03:03:43 0° 122° (ESE) 3,419 5.8 -31.3°
